Regional Weather Roundup
Issued by NWS

Home | Current Version | Previous Version | Graphics & Text | Print | Product List | Glossary On
Versions: 1 2 3 4 5 6 7 8 9 10 11 12 13 14 15 16 17 18 19 20 21 22 23 24 25 26 27 28 29 30 31 32 33 34 35 36 37 38 39 40 41 42 43 44 45 46 47 48 49 50
000
ASUS43 KFSD 201010
RWRSD

WEATHER ROUNDUP FOR SOUTH DAKOTA
NATIONAL WEATHER SERVICE SIOUX FALLS SD
500 AM CDT MON OCT 20 2014

NOTE: "FAIR" INDICATES FEW OR NO CLOUDS BELOW 12,000 FEET WITH NO
SIGNIFICANT WEATHER AND/OR OBSTRUCTIONS TO VISIBILITY.


SDZ001>005-009-010-012>017-201100-
NORTHWEST AND NORTH CENTRAL SOUTH DAKOTA

CITY           SKY/WX    TMP DP  RH WIND       PRES   REMARKS
BUFFALO          N/A     44  34  67 SE5       29.98F
FAITH            N/A     42  36  79 S10       30.07R
MOBRIDGE       MOCLDY    36  33  89 W3        30.04S
$$

SDZ012>016-024>037-041>051-057-063-072>074-201100-
SOUTHWEST AND SOUTH CENTRAL SOUTH DAKOTA

CITY           SKY/WX    TMP DP  RH WIND       PRES   REMARKS
RAPID CTY ARPT CLEAR     44  36  73 CALM      30.07F
PIERRE         PTCLDY    42  34  73 CALM      30.06S
CUSTER         CLEAR     38  33  82 W5        30.15F
ELLSWORTH AFB  CLEAR     47  38  71 S7        30.06F
PHILIP         CLEAR     34  31  88 W3        30.07F
PINE RIDGE     CLEAR     33  31  92 CALM      30.09F
SPEARFISH      FAIR      46  36  66 CALM      30.06S
WINNER         FAIR      48  36  63 SW6       30.08R
$$

SDZ004>011-016>023-039-040-201100-
NORTHEAST SOUTH DAKOTA

CITY           SKY/WX    TMP DP  RH WIND       PRES   REMARKS
ABERDEEN       PTCLDY    33  30  88 SE3       30.04R
WATERTOWN      CLEAR     36  33  89 CALM      30.03R
SISSETON         N/A     39  35  86 NW6       30.00R
$$

SDZ017-020-022-023-036>040-048>070-201100-
SOUTHEAST SOUTH DAKOTA

CITY           SKY/WX    TMP DP  RH WIND       PRES   REMARKS
SIOUX FALLS    CLEAR     40  36  86 CALM      30.03R
HURON          CLEAR     35  32  88 CALM      30.05R
CHAMBERLAIN    CLEAR     39  35  83 W3        30.07R
MITCHELL       CLEAR     40  36  86 W5        30.06R
YANKTON        CLEAR     41  36  81 NW8       30.04S
$$

ABBREVIATIONS USED IN REMARKS
   TC - TEMPERATURE IN CELSIUS
  WCI - WIND CHILL INDEX
   HX - HEAT INDEX
  VSB - VISIBILITY



USA.gov is the U.S. government's official web portal to all federal, state and local government web resources and services.